Location: Dirnreith
(47.0500°N, 15.7000°E)
Time: 14:39:55
(UTC+00:00)

Daily predictions for brighter satellites

Satellite Brightness Start Highest point End
(mag) Time Altitude Azimuth Time Altitude Azimuth Time Altitude Azimuth
CZ-4 R/B 3.4 17:57:45 10° SSW 18:01:12 31° W 18:04:40 10° NNW
Cosmos 1825 Rocket 4.5 17:58:21 10° N 18:02:15 30° ENE 18:06:05 10° SE
Cosmos 292 Rocket 3.8 17:59:22 10° NNW 18:04:12 78° ENE 18:09:01 10° SSE
SL-8 R/B 3.9 18:01:19 10° WNW 18:06:04 67° SSW 18:10:48 10° ESE
BREEZE-M DEB (TANK) 4.3 17:57:54 10° WNW 18:06:51 70° N 18:10:02 10° E
Cosmos 1943 Rocket 2.3 18:01:43 10° NNW 18:07:17 82° WSW 18:12:52 10° SSE
Cosmos 2074 Rocket 4.3 18:01:36 10° N 18:07:40 47° ENE 18:13:41 10° SSE
COSMOS 2455 4.2 18:03:14 10° NNW 18:08:05 24° NE 18:12:55 10° E
Cosmos 2369 Rocket 2.2 18:03:13 10° NNW 18:08:57 80° ENE 18:14:37 10° SSE
Cosmos 1703 4.5 18:06:11 10° NNE 18:09:27 24° ENE 18:12:43 10° SE
IRS-1A Rocket 4.4 18:05:20 10° SSE 18:11:01 73° ENE 18:16:51 10° NNW
SPOT 3 Rocket 4.3 18:06:37 10° SE 18:11:18 35° ENE 18:16:00 10° N
Cosmos 1758 Rocket 3.8 18:10:55 10° N 18:15:07 46° ENE 18:19:16 10° SSE
IRIDIUM 106 4.5 18:10:09 10° N 18:15:17 54° E 18:20:23 10° SSE
Abrixas rocket 2.1 18:14:46 10° W 18:17:43 68° N 18:20:40 10° ENE
Cosmos 1992 Rocket 4.1 18:16:05 10° NNW 18:21:20 86° WSW 18:26:32 10° SSE
Cosmos 1953 2.2 18:17:54 10° S 18:21:51 67° E 18:25:49 10° NNE
Cosmos 1437 2.9 18:19:36 10° N 18:22:33 46° ENE 18:25:28 10° SSE
Cosmos 1953 Rocket 4.4 18:18:32 10° N 18:22:36 33° ENE 18:26:40 10° SE
Cosmos 2228 3.7 18:19:16 10° SSE 18:23:05 32° E 18:26:58 10° NNE
Cosmos 1606 Rocket 4.1 18:21:19 10° SSE 18:25:23 37° E 18:29:31 10° NNE
Cosmos 1818 3.8 18:20:23 10° S 18:25:33 47° ESE 18:30:46 10° NE
Cosmos 1908 4.1 18:24:41 10° SSE 18:27:59 28° E 18:31:21 10° NNE
Cosmos 2263 4.2 18:23:18 10° NNW 18:28:56 83° ENE 18:34:33 10° SSE
Cosmos 1470 4.1 18:28:24 10° SSW 18:32:06 43° WNW 18:35:52 10° N
SL-08 RB Rocket 3.8 18:29:11 10° SSE 18:33:40 62° ENE 18:38:14 10° N
Cosmos 1943 3.2 18:28:26 10° SSW 18:34:01 66° ESE 18:39:40 10° NNE
Aureole 2 Rocket 3.9 18:34:11 10° NW 18:37:26 36° WSW 18:40:34 10° S
CZ-2C R/B 3.0 18:33:21 10° SSE 18:38:16 82° WSW 18:43:04 10° NNW
BREEZE-M DEB (TANK) 2.0 18:33:30 10° WSW 18:39:11 82° SSE 18:41:06 16° ENE
Cosmos 1461 4.1 18:36:27 10° NNW 18:40:33 33° NE 18:43:27 17° E
H-2A R/B 2.5 18:42:53 10° S 18:48:04 62° WSW 18:53:09 10° NNW
NOSS 3-4 (A) 3.9 18:46:19 10° NW 18:53:14 69° NE 18:58:54 19° SE
NOSS 3-4 (C) 3.9 18:46:26 10° NW 18:53:20 69° NE 18:58:59 19° SE
Cosmos 1656 Rocket 3.7 18:49:13 10° NNW 18:54:56 88° ENE 18:59:39 15° SSE
CZ-2C R/B 2.8 18:52:46 10° NNE 18:57:46 46° E 19:02:43 10° S
Resurs 1-3 3.6 18:55:38 16° SSE 18:59:06 69° ENE 19:03:29 10° N
STARLINK-1228 3.9 18:57:17 10° NW 18:59:59 33° NNE 19:01:05 24° ENE
Aureole 1 Rocket 4.2 18:52:29 10° S 19:00:03 59° ESE 19:06:04 10° NNE
MetOp-A 4.1 18:56:24 10° SSE 19:01:45 83° ENE 19:07:09 10° NNW
NOSS 3-3 (A) 4.3 18:56:30 10° SW 19:02:24 68° NW 19:09:07 10° NE
Cosmos 1726 2.9 18:58:48 10° SSW 19:02:29 55° WNW 19:06:10 10° N
NOSS 3-3 (C) 4.3 18:56:36 10° SW 19:02:29 69° NW 19:09:12 10° NE
ARGOS 3.8 18:58:35 10° S 19:03:52 55° W 19:09:10 10° NNW
Cosmos 2184 Rocket 4.3 19:00:18 10° NNW 19:06:35 70° W 19:12:45 10° S
SJ-6B 3.8 19:03:25 10° S 19:07:24 48° W 19:11:26 10° NNW
STARLINK-60 3.4 19:04:54 10° SSW 19:07:54 39° SSE 19:07:54 39° SSE
ISS -1.1 19:06:37 10° WSW 19:08:15 13° SW 19:09:52 10° SSW
STARLINK-1233 4.1 19:07:11 10° NW 19:10:07 34° NNE 19:11:11 26° NE
STARLINK-1212 4.1 19:07:39 10° NW 19:10:34 34° NNE 19:11:36 26° NE
STARLINK-1105 4.1 19:08:05 10° NW 19:11:01 34° NNE 19:12:03 27° NE
BREEZE M DEB (TANK) 3.6 19:08:03 10° SSW 19:11:03 31° SE 19:18:05 10° ENE
STARLINK-1206 4.1 19:08:36 10° NW 19:11:30 34° NNE 19:12:28 27° NE
STARLINK-1247 4.1 19:09:03 10° NW 19:11:57 34° NNE 19:12:54 27° NE
STARLINK-1227 4.1 19:09:27 10° NW 19:12:23 34° NNE 19:13:20 27° NE
USA 186 4.1 19:09:43 10° SSW 19:12:32 24° W 19:15:16 10° NW
STARLINK-1218 4.1 19:09:58 10° NW 19:12:52 34° NNE 19:13:47 28° NE
STARLINK-1226 4.1 19:10:23 10° NW 19:13:18 34° NNE 19:14:12 28° NE
STARLINK-1254 4.1 19:10:48 10° NW 19:13:44 35° NNE 19:14:38 28° NE
STARLINK-1215 4.1 19:11:18 10° NW 19:14:13 35° NNE 19:15:04 29° NE
STARLINK-1231 4.1 19:11:44 10° NW 19:14:40 35° NNE 19:15:30 29° NE
STARLINK-67 2.9 19:12:11 10° NW 19:14:41 47° NNE 19:14:43 47° NNE
DMSP B5D2-2 4.0 19:09:45 10° NNE 19:15:00 76° ESE 19:20:14 10° S
STARLINK-1232 4.0 19:12:39 10° NW 19:15:34 35° NNE 19:16:22 29° NE
STARLINK-1217 4.0 19:13:05 10° NW 19:16:01 35° NNE 19:16:48 30° NE
STARLINK-1208 4.0 19:13:30 10° NW 19:16:27 36° NNE 19:17:15 30° NE
Terra 3.7 19:16:09 14° ENE 19:16:45 14° ENE 19:19:13 10° NNE
STARLINK-1229 4.0 19:13:59 10° NW 19:16:55 35° NNE 19:17:39 30° NE
STARLINK-1271 4.0 19:14:27 10° NW 19:17:23 36° NNE 19:18:07 31° NE
STARLINK-1234 3.6 19:14:33 10° NW 19:17:27 40° NNE 19:17:59 36° NE
STARLINK-1270 4.0 19:14:55 10° NW 19:17:50 36° NNE 19:18:33 31° NE
STARLINK-1154 4.0 19:15:20 10° NW 19:18:16 36° NNE 19:18:57 31° NE
STARLINK-1197 3.9 19:16:15 10° NW 19:19:11 36° NNE 19:19:50 32° NE
STARLINK-1189 3.9 19:16:42 10° NW 19:19:38 36° NNE 19:20:16 32° NE
STARLINK-1198 3.9 19:17:09 10° NW 19:20:05 36° NNE 19:20:42 33° NE
STARLINK-1209 3.5 19:17:25 10° NW 19:20:17 42° NNE 19:20:38 40° NE
STARLINK-1188 3.9 19:17:35 10° NW 19:20:32 36° NNE 19:21:08 33° NE
Cosmos 2058 Rocket 3.0 19:16:33 12° S 19:20:40 73° E 19:25:10 10° NNE
STARLINK-1235 3.7 19:18:13 10° NW 19:21:16 42° NNE 19:21:46 38° NE
STARLINK-1187 3.8 19:18:39 10° NW 19:21:40 40° NNE 19:22:12 36° NE
STARLINK-1199 3.9 19:19:33 10° NW 19:22:31 37° NNE 19:23:03 34° NE
MOS 1 Rocket 3.5 19:17:27 10° NNE 19:22:51 81° ESE 19:28:18 10° S
STARLINK-1191 3.9 19:19:59 10° NW 19:22:58 38° NNE 19:23:29 35° NE
STARLINK-1210 3.8 19:20:27 10° NW 19:23:25 38° NNE 19:23:55 35° NE
USA 234 3.4 19:17:25 10° ENE 19:23:45 50° SE 19:30:04 10° SSW
STARLINK-1221 3.8 19:20:53 10° NW 19:23:52 38° NNE 19:24:21 35° NE
Resurs 01 Rocket 1.5 19:21:42 29° SSE 19:23:58 86° ENE 19:28:25 10° NNW
STARLINK-1219 3.8 19:21:20 10° NW 19:24:19 38° NNE 19:24:47 36° NE
STARLINK-1222 3.8 19:21:47 10° NW 19:24:46 38° NNE 19:25:13 36° NE
STARLINK-1211 3.8 19:22:15 10° NW 19:25:14 38° NNE 19:25:39 36° NE
STARLINK-1214 3.8 19:22:41 10° NW 19:25:41 39° NNE 19:26:05 37° NE
ATLAS 2AS CENTAUR R/B 2.9 19:18:05 10° NW 19:25:43 80° SW 19:29:59 27° SSE
STARLINK-1245 3.8 19:23:11 10° NW 19:26:09 38° NNE 19:26:30 37° NE
STARLINK-1238 3.8 19:23:35 10° NW 19:26:36 39° NNE 19:26:57 37° NE
STARLINK-1205 3.8 19:24:32 10° NW 19:27:31 39° NNE 19:27:49 38° NE
STARLINK-1204 3.7 19:24:59 10° NW 19:27:57 39° NNE 19:28:14 38° NNE
Cosmos 2154 Rocket 4.2 19:22:29 10° NNW 19:28:51 74° W 19:34:52 11° S
Cosmos 2181 Rocket 4.3 19:27:29 29° SE 19:30:10 46° E 19:36:02 10° NNE
Cosmos 1190 Rocket 3.9 19:25:21 10° SSW 19:30:38 76° ESE 19:35:57 10° NNE
Iridium 4 Rocket 4.1 19:27:46 10° NNE 19:30:54 27° ENE 19:30:54 27° ENE
Nadezhda 1 Rocket 4.2 19:25:14 10° SSW 19:31:37 73° W 19:37:59 10° N
Cosmos 1140 Rocket 3.4 19:26:50 10° S 19:31:59 68° ESE 19:37:08 10° NNE
Cosmos 962 Rocket 4.4 19:26:05 10° N 19:32:16 77° E 19:35:47 27° SSE
USA 245 4.5 19:30:56 35° SE 19:33:07 56° ENE 19:39:16 10° N
Spot 2 Rocket 3.6 19:31:32 39° SE 19:33:13 58° ENE 19:38:14 10° N
SL-4 R/B 1.4 19:29:54 10° WSW 19:33:18 84° NNW 19:33:43 67° NE
Cosmos 1726 Rocket 4.3 19:29:47 10° SSW 19:34:06 54° WNW 19:38:28 10° N
Cosmos 1340 Rocket 2.9 19:32:48 17° SSW 19:35:49 79° WNW 19:39:53 10° N
SL-8 Rocket 4.1 19:30:00 10° N 19:36:13 57° ENE 19:38:40 36° SE
STARLINK-1201 3.7 19:33:08 10° NW 19:36:18 43° NNE 19:36:24 43° NNE
ATLAS 5 CENTAUR R/B 1.4 19:33:58 10° SSW 19:38:04 65° SE 19:42:41 10° NE
SL-24 R/B - RUBIN 2 4.2 19:36:03 10° SSW 19:41:38 81° SE 19:47:59 10° NE
Cosmos 2366 rocket 4.1 19:41:46 10° N 19:47:48 55° ENE 19:49:24 43° SE
In-Cosmos 22 Rocket 4.4 19:43:13 10° N 19:48:59 58° ENE 19:50:21 46° ESE
STARLINK-1230 4.4 19:45:04 10° WNW 19:49:03 43° NNE 19:49:52 38° NE
Cosmos 1300 2.6 19:50:48 75° NNE 19:50:48 75° NNE 19:54:22 10° N
IGS 5A 3.6 19:53:17 58° ENE 19:53:17 58° ENE 19:57:12 10° N
Abrixas rocket 3.5 19:50:28 10° WNW 19:52:19 34° WNW 19:52:19 34° WNW
STARLINK-1243 4.3 19:50:02 10° WNW 19:54:01 44° NNE 19:54:37 41° NE
COSMOS 2455 2.8 19:48:46 10° NNW 19:54:50 90° W 19:56:39 48° SSE
Cosmos 1812 Rocket 4.3 19:56:43 38° NE 19:56:43 38° NE 19:59:47 10° NNE
Cosmos 1959 Rocket 4.5 19:50:17 10° N 19:56:37 66° E 19:58:18 48° SE
Cosmos 921 Rocket 3.2 19:52:29 10° NNW 19:56:38 62° WSW 19:57:12 55° SW
Cosmos 676 Rocket 3.9 19:56:21 31° SSW 19:58:57 80° ESE 20:04:13 10° NNE
STARLINK-1236 4.3 19:55:02 10° WNW 19:59:03 46° NNE 19:59:25 44° NNE
Cosmos 407 Rocket 4.2 19:55:25 10° SW 20:00:27 54° WNW 20:05:30 10° NNE
ERS-1 Rocket 3.0 20:07:39 59° ENE 20:07:46 59° ENE 20:12:43 10° N
STARLINK-1269 4.2 20:05:02 10° WNW 20:09:00 49° NNE 20:09:00 49° NNE
ATLAS CENTAUR R/B 3.6 20:09:05 10° N 20:11:20 14° NNE 20:11:25 14° NNE
ERBS 4.1 20:08:17 10° NW 20:10:29 28° N 20:10:29 28° N
Meteor 2-1 Rocket 4.3 20:11:13 59° ESE 20:11:33 60° E 20:17:23 10° NNE
Landsat 7 3.7 20:11:38 80° S 20:11:54 88° WSW 20:16:41 10° NNW
STARLINK-1200 4.3 20:10:00 10° WNW 20:13:47 50° N 20:13:47 50° N
SPOT 1/Viking Rocket 3.4 20:14:31 73° SSE 20:15:01 86° ENE 20:20:17 10° NNW
Cosmos 220 Rocket 4.3 20:14:04 10° NNW 20:17:46 63° N 20:17:46 63° N
STARLINK-1192 4.3 20:14:58 10° WNW 20:18:33 50° N 20:18:33 50° N
Cosmos 1461 4.0 20:15:28 10° NW 20:19:44 40° WSW 20:19:51 40° WSW
Cosmos 1954 Rocket 4.2 20:21:02 31° SW 20:23:33 68° WNW 20:28:46 10° NNE
STARLINK-1244 4.4 20:19:58 10° WNW 20:23:21 49° NNW 20:23:21 49° NNW
SL-08 R/B 4.3 20:21:59 10° N 20:28:08 75° E 20:28:38 70° ESE
Cosmos 1821 Rocket 4.3 20:23:41 10° N 20:29:51 49° ENE 20:29:53 49° ENE
Cosmos 2151 4.4 20:29:47 10° N 20:32:13 32° NNE 20:32:13 32° NNE
CZ-4C R/B 3.9 20:28:06 10° NNW 20:34:21 36° NNE 20:37:08 28° ENE
Cosmos 1697 Rocket 3.5 20:30:13 10° NNW 20:35:27 39° NE 20:35:27 39° NE
SPOT 5 3.3 20:36:47 50° N 20:36:47 50° N 20:40:01 10° NNW
Cosmos 1076 Rocket 4.3 20:31:36 10° NNW 20:35:03 50° NW 20:35:03 50° NW
CZ-2C R/B 4.5 20:33:32 10° N 20:37:50 27° WNW 20:42:08 10° WSW
Cosmos 2058 4.2 20:41:21 10° NNW 20:44:18 38° NW 20:44:18 38° NW
SL-16 R/B 4.4 20:46:06 10° N 20:48:54 14° NE 20:50:30 12° NE
Cosmos 1763 Rocket 3.8 20:45:09 10° NNW 20:49:35 64° NNW 20:49:35 64° NNW
Terra 2.5 20:55:02 51° NNW 20:55:02 51° NNW 20:58:37 10° NNW
USA 32 4.3 20:51:09 10° N 20:55:38 64° NNW 20:55:38 64° NNW
RESURS DK-1 4.2 20:54:16 10° NNW 20:56:27 29° N 20:56:27 29° N
Cosmos 2322 Rocket 4.5 20:56:06 10° N 20:58:50 13° NE 21:00:20 12° NE
Resurs 01 Rocket 4.4 21:00:08 10° W 21:01:05 11° W 21:02:03 10° WNW
Cosmos 1980 Rocket 3.2 20:58:36 10° NNW 21:03:10 35° NE 21:03:10 35° NE
Cosmos 540 Rocket 4.3 21:00:36 10° NNW 21:04:25 47° N 21:04:25 47° N
USA 234 3.6 21:00:26 10° NE 21:06:54 64° NNW 21:13:20 10° WSW
Cosmos 1656 4.1 21:05:51 10° NNW 21:10:37 60° NW 21:10:37 60° NW
ATLAS 5 CENTAUR R/B 3.8 21:19:31 10° W 21:23:11 25° NNW 21:27:14 10° NNE
Cosmos 841 Rocket 4.4 21:20:31 10° NNW 21:24:13 46° NW 21:24:13 46° NW
Cosmos 2278 4.4 21:21:16 10° NNW 21:25:34 49° N 21:25:34 49° N
Cosmos 2082 Rocket 4.0 21:33:29 21° NE 21:33:29 21° NE 21:35:22 10° NE
Mayak 1.2 21:29:23 10° N 21:30:35 19° N 21:30:35 19° N
Nadezhda 3 Rocket 4.5 21:43:48 55° WNW 21:43:48 55° WNW 21:49:39 10° N
COSMOS 2406 4.1 21:45:30 46° NNW 21:45:30 46° NNW 21:49:56 10° NNE
Cosmos 1833 Rocket 4.0 21:47:50 34° NNE 21:47:50 34° NNE 21:50:57 10° NNE
ATLAS CENTAUR R/B 4.3 21:47:05 10° NW 21:47:36 13° NW 21:47:36 13° NW
Cosmos 1697 Rocket 4.4 22:14:17 10° NW 22:17:11 27° WNW 22:17:11 27° WNW
CZ-4C R/B 3.1 22:16:26 10° NW 22:22:18 64° NW 22:22:18 64° NW
SL-16 R/B 3.5 22:28:47 10° NNW 22:32:21 36° N 22:32:21 36° N
Cosmos 2360 Rocket 3.8 22:35:36 10° NNW 22:39:33 29° NNE 22:39:33 29° NNE
Cosmos 2322 Rocket 3.6 22:38:42 10° NNW 22:42:08 35° N 22:42:08 35° N
Cosmos 1980 Rocket 4.0 22:42:37 10° NW 22:44:56 23° NW 22:44:56 23° NW
Cosmos 2333 Rocket 4.4 22:44:45 10° N 22:48:30 18° NE 22:49:56 16° ENE
USA 234 4.4 22:43:21 10° ENE 22:49:18 39° N 22:55:15 10° WNW
Cosmos 2082 Rocket 3.8 23:15:17 30° NNW 23:15:17 30° NNW 23:19:19 10° NNE
SL-16 R/B 3.8 23:29:18 33° ENE 23:29:37 33° ENE 23:35:05 10° N
Cosmos 2219 Rocket 3.6 23:35:24 10° NNW 23:40:10 32° NE 23:40:10 32° NE
COSMOS 2428 4.0 23:47:44 10° NNW 23:52:46 37° NE 23:52:46 37° NE
